UNISAT-6 (40012 NORAD) Tracking and Keplerian Element Data

This shows tracking and keplerian element data for the satellite.

Feedback or suggestion? Click here.




ElementValue
Catalog40012
NameUNISAT-6
Epoch Orbit23748
Epoch Day322.8686629
Epoch Year2018
RAAN193.209
Inclination97.7839
Eccentricity0.0059695
Argument of Perigee61.4828
Mean Anonmoly299.2374
Mean Motion14.73891914
Decay Rate2.02E-06
L11 40012U 14033C 18322.86866290 .00000202 00000-0 37496-4 0 9996
L22 40012 97.7839 193.2090 0059695 61.4828 299.2374 14.73891914237486

Live tracking and technical data element details for UNISAT-6 (NORAD 40012). UNISAT-6 can be tracked NOW for your location showing map with azimuth and elevation plus other details from your city location.

Track the satellite on the map from your city or location and see movement details for azimuth, elevation, latitude, longitude, range, height, and movement on the map or in text.







IsCatalogInMostPopularTable: catalog: 40012, numindb: 109
Update: records affected: 1



GetName: 40012 UNISAT-6

Hit Count: updated at: Mon, 19 Nov 2018 11:22:05 GMT